This is the latest recevied weather packets stored in our database for station/object WR9A-13. If no packets are shown the sender has not sent any weather packets the latest 10 day(s).
| Time | Temp. | Humidity | Pressure | Rain* | Wind** | Luminosity | Snow |
|---|---|---|---|---|---|---|---|
| 1787578530 | 17.78° C | 82% | 1019 hPa | 0 mm | - | - | - |
| 1787578226 | 17.78° C | 84% | 1019.1 hPa | 0 mm | - | - | - |
| 1787577915 | 17.22° C | 85% | 1019.2 hPa | 0 mm | - | - | - |
| 1787577633 | 17.22° C | 85% | 1019.1 hPa | 0 mm | - | - | - |
| 1787577320 | 16.67° C | 86% | 1019.1 hPa | 0 mm | - | - | - |
| 1787577036 | 16.67° C | 86% | 1019.1 hPa | 0 mm | - | - | - |
| 1787576724 | 16.67° C | 86% | 1019.2 hPa | 0 mm | - | - | - |
| 1787576415 | 16.11° C | 86% | 1019.3 hPa | 0 mm | - | - | - |
| 1787576132 | 16.11° C | 86% | 1019.2 hPa | 0 mm | - | - | - |
| 1787575821 | 16.11° C | 87% | 1018.9 hPa | 0 mm | - | - | - |
| 1787575537 | 16.11° C | 87% | 1018.9 hPa | 0 mm | - | - | - |
| 1787575225 | 16.11° C | 88% | 1019 hPa | 0 mm | - | - | - |
| 1787574940 | 15.56° C | 89% | 1019 hPa | 0 mm | - | - | - |
| 1787574627 | 15.56° C | 91% | 1019 hPa | 0 mm | - | - | - |
| 1787574325 | 15° C | 93% | 1019 hPa | 0 mm | - | - | - |
| 1787574033 | 15° C | 94% | 1018.9 hPa | 0 mm | - | - | - |
| 1787573731 | 14.44° C | 94% | 1018.9 hPa | 0 mm | - | - | - |
| 1787573418 | 13.89° C | 95% | 1018.8 hPa | 0 mm | - | - | - |
| 1787573131 | 13.89° C | 95% | 1018.7 hPa | 0 mm | - | - | - |
| 1787572841 | 13.33° C | 94% | 1018.7 hPa | 0 mm | - | - | - |
| 1787572530 | 12.78° C | 94% | 1018.7 hPa | 0 mm | - | - | - |
| 1787572217 | 12.78° C | 93% | 1018.7 hPa | 0 mm | - | - | - |
| 1787571933 | 12.78° C | 93% | 1018.6 hPa | 0 mm | - | - | - |
| 1787571619 | 12.78° C | 93% | 1018.6 hPa | 0 mm | - | - | - |
| 1787571315 | 12.78° C | 93% | 1018.5 hPa | 0 mm | - | - | - |
* Rain latest hour (hover to see other rain measurements)
** Current wind speed in m/s (hover to see current wind gust speed)